VE6CPK-13 Weather Reports


time (UTC)temp
C
wind
direction
speed
KPH
gust
KPH
rain 1hr
cm
rain 24hr
cm
rain mn
cm
humidity
%
barometer
mb
20260502201715 17 186 1.6 11.3 0.00 0.00 0.00 40 1011.1
20260502201217 17 38 0.0 11.3 0.00 0.00 0.00 39 1011.1
20260502200717 17 173 0.0 11.3 0.00 0.00 0.00 40 1011.2
20260502200217 17 180 3.2 11.3 0.00 0.00 0.00 42 1011.3
20260502195717 17 169 0.0 11.3 0.00 0.00 0.00 40 1011.4
20260502195217 17 167 0.0 11.3 0.00 0.00 0.00 39 1011.5
20260502194717 17 168 0.0 11.3 0.00 0.00 0.00 40 1011.6
20260502194216 17 171 0.0 11.3 0.00 0.00 0.00 40 1011.7
20260502193716 17 170 0.0 11.3 0.00 0.00 0.00 40 1011.8
20260502193216 17 175 1.6 11.3 0.00 0.00 0.00 39 1011.8
20260502192716 17 180 1.6 9.7 0.00 0.00 0.00 40 1011.8
20260502192215 17 175 1.6 9.7 0.00 0.00 0.00 41 1011.9
20260502191715 17 175 0.0 9.7 0.00 0.00 0.00 40 1011.9
20260502191215 17 146 0.0 9.7 0.00 0.00 0.00 40 1012.0
20260502190715 17 177 3.2 9.7 0.00 0.00 0.00 41 1012.0
20260502190215 16 169 0.0 9.7 0.00 0.00 0.00 41 1012.1
20260502185715 16 179 3.2 9.7 0.00 0.00 0.00 43 1012.2
20260502185215 16 184 0.0 9.7 0.00 0.00 0.00 40 1012.3
20260502184716 16 208 1.6 9.7 0.00 0.00 0.00 41 1012.3
20260502184216 16 174 1.6 9.7 0.00 0.00 0.00 42 1012.5
20260502183716 16 180 0.0 9.7 0.00 0.00 0.00 42 1012.5
20260502183216 16 177 3.2 9.7 0.00 0.00 0.00 44 1012.5
20260502182716 16 196 3.2 9.7 0.00 0.00 0.00 43 1012.6
20260502182216 15 184 0.0 9.7 0.00 0.00 0.00 43 1012.7
20260502181716 15 186 0.0 9.7 0.00 0.00 0.00 43 1012.9
20260502181217 15 176 1.6 9.7 0.00 0.00 0.00 43 1013.0
20260502180716 15 18 0.0 9.7 0.00 0.00 0.00 43 1013.1
20260502180216 15 18 1.6 9.7 0.00 0.00 0.00 43 1013.1
20260502170220 13 186 0.0 8.0 0.00 0.00 0.00 48 1013.6
20260502164220 12 157 0.0 3.2 0.00 0.00 0.00 52 1013.6
20260502163719 12 157 0.0 3.2 0.00 0.00 0.00 52 1013.6
20260502163219 12 153 0.0 3.2 0.00 0.00 0.00 52 1013.7
20260502162720 12 142 0.0 3.2 0.00 0.00 0.00 52 1013.7
20260502162221 12 11 0.0 3.2 0.00 0.00 0.00 53 1013.7
20260502161719 11 11 0.0 3.2 0.00 0.00 0.00 53 1013.8
20260502161219 11 11 0.0 3.2 0.00 0.00 0.00 55 1013.8
20260502160720 11 11 0.0 3.2 0.00 0.00 0.00 56 1013.8
20260502160220 11 11 0.0 3.2 0.00 0.00 0.00 56 1013.9
20260502152220 10 11 0.0 3.2 0.00 0.00 0.00 61 1014.1
20260502151720 10 11 0.0 3.2 0.00 0.00 0.00 60 1014.1
20260502151146 10 11 0.0 3.2 0.00 0.00 0.00 58 1014.0
20260502150646 10 11 0.0 3.2 0.00 0.00 0.00 58 1014.0
20260502150146 10 11 0.0 3.2 0.00 0.00 0.00 58 1013.9
20260502130646 7 11 0.0 3.2 0.00 0.00 0.00 67 1013.7
20260502130145 7 11 0.0 3.2 0.00 0.00 0.00 67 1013.7
20260502123646 8 11 0.0 3.2 0.00 0.00 0.00 65 1013.6
20260502123144 8 11 0.0 3.2 0.00 0.00 0.00 65 1013.6
20260502122645 8 11 0.0 3.2 0.00 0.00 0.00 65 1013.5
20260502122145 8 11 0.0 3.2 0.00 0.00 0.00 64 1013.6
20260502121646 8 11 0.0 3.2 0.00 0.00 0.00 64 1013.6
20260502121144 8 11 0.0 3.2 0.00 0.00 0.00 63 1013.5
20260502120645 8 11 0.0 3.2 0.00 0.00 0.00 63 1013.5
20260502120145 8 11 0.0 3.2 0.00 0.00 0.00 62 1013.5
20260502115645 8 11 0.0 3.2 0.00 0.00 0.00 62 1013.5
20260502115145 8 11 0.0 3.2 0.00 0.00 0.00 62 1013.5
20260502114644 8 11 0.0 3.2 0.00 0.00 0.00 62 1013.5
20260502114145 8 11 0.0 3.2 0.00 0.00 0.00 62 1013.5
20260502113644 9 11 0.0 3.2 0.00 0.00 0.00 62 1013.4
20260502113145 9 11 0.0 3.2 0.00 0.00 0.00 61 1013.5
20260502112645 9 11 0.0 3.2 0.00 0.00 0.00 61 1013.5
20260502112146 9 11 0.0 3.2 0.00 0.00 0.00 61 1013.4
20260502111644 9 11 0.0 3.2 0.00 0.00 0.00 61 1013.4
20260502111144 9 11 0.0 3.2 0.00 0.00 0.00 61 1013.4
20260502110644 9 11 0.0 3.2 0.00 0.00 0.00 60 1013.5
20260502110144 9 11 0.0 3.2 0.00 0.00 0.00 61 1013.5
20260502105645 9 11 0.0 3.2 0.00 0.00 0.00 61 1013.5
20260502105146 9 11 0.0 3.2 0.00 0.00 0.00 60 1013.4
20260502104644 9 11 0.0 3.2 0.00 0.00 0.00 61 1013.5
20260502104145 9 11 0.0 3.2 0.00 0.00 0.00 61 1013.5
20260502103646 9 11 0.0 3.2 0.00 0.00 0.00 61 1013.5
20260502103144 9 11 0.0 3.2 0.00 0.00 0.00 61 1013.5
20260502102644 9 11 0.0 3.2 0.00 0.00 0.00 61 1013.5
20260502102145 10 11 0.0 1.6 0.00 0.00 0.00 61 1013.5
20260502101645 10 11 0.0 1.6 0.00 0.00 0.00 62 1013.5
20260502101144 10 11 0.0 1.6 0.00 0.00 0.00 62 1013.4
20260502100645 10 11 0.0 1.6 0.00 0.00 0.00 62 1013.4
20260502100145 10 11 0.0 1.6 0.00 0.00 0.00 63 1013.3
20260502091143 10 11 0.0 0.0 0.00 0.00 0.00 62 1013.3
20260502090644 10 11 0.0 0.0 0.00 0.00 0.00 61 1013.2
20260502090144 10 11 0.0 0.0 0.00 0.00 0.00 61 1013.2
20260502071144 10 11 0.0 0.0 0.00 0.00 0.00 60 1012.9
20260502070644 10 11 0.0 0.0 0.00 0.00 0.00 60 1012.8
20260502070144 10 11 0.0 0.0 0.00 0.00 0.00 59 1012.8
20260502065645 10 11 0.0 0.0 0.00 0.00 0.00 59 1012.8
20260502065143 10 11 0.0 0.0 0.00 0.00 0.00 59 1012.7
20260502064644 10 11 0.0 0.0 0.00 0.00 0.00 59 1012.7
20260502064144 10 11 0.0 0.0 0.00 0.00 0.00 59 1012.7
20260502063644 10 11 0.0 0.0 0.00 0.00 0.00 59 1012.7
20260502063143 10 11 0.0 0.0 0.00 0.00 0.00 59 1012.7
20260502062643 10 11 0.0 0.0 0.00 0.00 0.00 58 1012.6
20260502062144 10 11 0.0 0.0 0.00 0.00 0.00 58 1012.6
20260502061645 10 11 0.0 0.0 0.00 0.00 0.00 58 1012.6
20260502061143 10 11 0.0 0.0 0.00 0.00 0.00 58 1012.6
20260502060644 10 11 0.0 0.0 0.00 0.00 0.00 58 1012.6
20260502060144 10 11 0.0 0.0 0.00 0.00 0.00 58 1012.6
20260502055645 10 11 0.0 20.9 0.00 0.00 0.00 58 1012.6
20260502055143 10 11 0.0 20.9 0.00 0.00 0.00 58 1012.5
20260502054643 10 11 0.0 20.9 0.00 0.00 0.00 58 1012.6
20260502054143 11 11 0.0 20.9 0.00 0.00 0.00 58 1012.5
20260502053644 11 11 0.0 20.9 0.00 0.00 0.00 57 1012.5
20260502053144 11 11 0.0 20.9 0.00 0.00 0.00 57 1012.4
20260502052643 11 11 0.0 20.9 0.00 0.00 0.00 57 1012.4
20260502052143 11 11 0.0 20.9 0.00 0.00 0.00 57 1012.4
20260502051644 11 11 0.0 20.9 0.00 0.00 0.00 56 1012.2
20260502051145 11 6 0.0 20.9 0.00 0.00 0.00 57 1012.2
20260502050643 11 5 1.6 20.9 0.00 0.00 0.00 56 1012.1
20260502050143 11 9 0.0 20.9 0.00 0.00 0.00 56 1012.1
20260502045644 11 17 1.6 20.9 0.00 0.00 0.00 56 1012.1
20260502045143 11 8 4.8 20.9 0.00 0.00 0.00 56 1012.1
20260502044643 11 5 3.2 20.9 0.00 0.00 0.00 56 1012.0
20260502044143 11 5 3.2 20.9 0.00 0.00 0.00 56 1012.0
20260502043643 11 358 3.2 20.9 0.00 0.00 0.00 56 1011.9
20260502043144 11 0 1.6 20.9 0.00 0.00 0.00 56 1011.8
20260502042644 11 356 3.2 20.9 0.00 0.00 0.00 55 1011.7
20260502042144 11 13 1.6 20.9 0.00 0.00 0.00 55 1011.7
20260502041644 11 11 3.2 20.9 0.00 0.00 0.00 55 1011.6
20260502041143 12 13 3.2 20.9 0.00 0.00 0.00 54 1011.6
20260502040645 12 14 3.2 20.9 0.00 0.00 0.00 54 1011.6
20260502040144 12 2 4.8 20.9 0.00 0.00 0.00 54 1011.5
20260502035644 12 16 4.8 20.9 0.00 0.00 0.00 53 1011.4
20260502035143 12 325 3.2 20.9 0.00 0.00 0.00 53 1011.3
20260502034644 12 13 3.2 20.9 0.00 0.00 0.00 53 1011.3
20260502034144 12 5 4.8 20.9 0.00 0.00 0.00 53 1011.3
20260502033643 12 5 8.0 20.9 0.00 0.00 0.00 53 1011.1
20260502033143 12 10 9.7 20.9 0.00 0.00 0.00 52 1011.1
20260502032643 12 3 9.7 20.9 0.00 0.00 0.00 52 1011.0
20260502032143 12 13 8.0 19.3 0.00 0.00 0.00 52 1011.0
20260502031643 12 17 4.8 19.3 0.00 0.00 0.00 52 1010.9
20260502031143 12 359 4.8 19.3 0.00 0.00 0.00 51 1010.8
20260502030642 13 62 4.8 19.3 0.00 0.00 0.00 50 1010.7
20260502030143 13 16 3.2 19.3 0.00 0.00 0.00 49 1010.4
20260502025643 13 63 1.6 19.3 0.00 0.00 0.00 49 1010.3
20260502025143 13 13 3.2 19.3 0.00 0.00 0.00 48 1010.2
20260502024644 13 17 8.0 19.3 0.00 0.00 0.00 47 1010.1
20260502024144 14 2 8.0 19.3 0.00 0.00 0.00 45 1010.0
20260502023644 15 358 8.0 19.3 0.00 0.00 0.00 42 1009.9
20260502023143 16 348 4.8 19.3 0.00 0.00 0.00 38 1009.8
20260502022643 16 70 0.0 19.3 0.00 0.00 0.00 33 1009.2
20260502022143 16 70 1.6 19.3 0.00 0.00 0.00 33 1009.0
20260502021644 16 73 0.0 19.3 0.00 0.00 0.00 33 1009.0
20260502021144 17 19 1.6 19.3 0.00 0.00 0.00 32 1008.9
20260502020643 17 29 1.6 19.3 0.00 0.00 0.00 32 1008.8
20260502020143 17 5 3.2 19.3 0.00 0.00 0.00 31 1008.8
20260502015643 17 5 1.6 19.3 0.00 0.00 0.00 31 1008.7
20260502015143 17 5 3.2 19.3 0.00 0.00 0.00 31 1008.7
20260502014644 17 27 1.6 19.3 0.00 0.00 0.00 31 1008.6
20260502014143 17 5 3.2 19.3 0.00 0.00 0.00 30 1008.6
20260502013644 17 15 1.6 19.3 0.00 0.00 0.00 30 1008.6
20260502013143 17 18 3.2 19.3 0.00 0.00 0.00 30 1008.5
20260502012643 17 1 3.2 19.3 0.00 0.00 0.00 30 1008.5
20260502012142 17 5 0.0 19.3 0.00 0.00 0.00 30 1008.4
20260502011643 17 36 1.6 19.3 0.00 0.00 0.00 29 1008.3
20260502011144 18 12 3.2 19.3 0.00 0.00 0.00 29 1008.3
20260502010644 18 0 0.0 19.3 0.00 0.00 0.00 29 1008.2
20260502010144 18 14 3.2 19.3 0.00 0.00 0.00 29 1008.2
20260502005643 18 17 1.6 19.3 0.00 0.00 0.00 29 1008.2
20260502005143 18 7 3.2 19.3 0.00 0.00 0.00 28 1008.2
20260502004642 18 29 4.8 19.3 0.00 0.00 0.00 28 1008.2
20260502004143 18 8 4.8 19.3 0.00 0.00 0.00 28 1008.1
20260502003642 18 19 3.2 19.3 0.00 0.00 0.00 28 1008.1
20260502003142 18 32 3.2 19.3 0.00 0.00 0.00 27 1008.0
20260502002643 19 23 3.2 19.3 0.00 0.00 0.00 26 1008.0
20260502002144 19 16 1.6 19.3 0.00 0.00 0.00 26 1007.9
20260502001644 19 8 0.0 19.3 0.00 0.00 0.00 26 1007.8
20260502001144 19 11 1.6 19.3 0.00 0.00 0.00 25 1007.7
20260502000644 19 22 0.0 19.3 0.00 0.00 0.00 25 1007.7
20260502000143 19 21 1.6 19.3 0.00 0.00 0.00 25 1007.6
20260501235643 19 6 1.6 19.3 0.00 0.00 0.00 24 1007.6
20260501235143 19 18 1.6 19.3 0.00 0.00 0.00 24 1007.6
20260501234643 19 35 0.0 19.3 0.00 0.00 0.00 24 1007.6
20260501234143 19 160 0.0 19.3 0.00 0.00 0.00 24 1007.6
20260501233643 19 160 0.0 19.3 0.00 0.00 0.00 24 1007.6
20260501233143 20 132 0.0 19.3 0.00 0.00 0.00 25 1007.6
20260501232642 20 17 0.0 19.3 0.00 0.00 0.00 24 1007.6
20260501232142 19 17 0.0 19.3 0.00 0.00 0.00 25 1007.6
20260501231642 19 17 0.0 19.3 0.00 0.00 0.00 25 1007.7
20260501231142 19 17 0.0 19.3 0.00 0.00 0.00 24 1007.8
20260501230642 20 17 0.0 19.3 0.00 0.00 0.00 24 1007.8
20260501230142 20 17 0.0 19.3 0.00 0.00 0.00 24 1007.8
20260501225642 20 43 0.0 19.3 0.00 0.00 0.00 24 1007.9
20260501225142 20 45 0.0 19.3 0.00 0.00 0.00 24 1007.9
20260501224642 19 18 1.6 19.3 0.00 0.00 0.00 24 1007.9
20260501224143 19 28 0.0 19.3 0.00 0.00 0.00 25 1007.9
20260501223643 19 28 0.0 19.3 0.00 0.00 0.00 23 1007.9
20260501223143 19 28 0.0 19.3 0.00 0.00 0.00 23 1007.9
20260501222643 20 28 0.0 19.3 0.00 0.00 0.00 24 1007.9
20260501222143 20 46 0.0 19.3 0.00 0.00 0.00 24 1008.0
20260501221643 20 46 0.0 19.3 0.00 0.00 0.00 24 1008.0
20260501221143 20 5 1.6 19.3 0.00 0.00 0.00 24 1008.1
20260501220643 20 20 3.2 19.3 0.00 0.00 0.00 23 1008.1
20260501220143 20 23 0.0 19.3 0.00 0.00 0.00 23 1008.0
20260501215642 20 26 0.0 19.3 0.00 0.00 0.00 24 1008.1
20260501215142 20 26 0.0 19.3 0.00 0.00 0.00 24 1008.2
20260501214642 20 22 0.0 19.3 0.00 0.00 0.00 24 1008.3
20260501214142 20 21 0.0 19.3 0.00 0.00 0.00 24 1008.3
20260501213642 20 21 0.0 19.3 0.00 0.00 0.00 24 1008.2
20260501213142 20 30 0.0 19.3 0.00 0.00 0.00 24 1008.2
20260501212642 20 3 3.2 19.3 0.00 0.00 0.00 24 1008.2
20260501212141 20 29 1.6 11.3 0.00 0.00 0.00 24 1008.1
20260501211642 20 344 1.6 11.3 0.00 0.00 0.00 23 1008.1
20260501211142 20 328 1.6 11.3 0.00 0.00 0.00 24 1008.1
20260501210641 20 329 0.0 11.3 0.00 0.00 0.00 25 1008.1
20260501210141 20 236 0.0 11.3 0.00 0.00 0.00 24 1008.2
20260501205641 20 236 0.0 11.3 0.00 0.00 0.00 24 1008.2
20260501205142 20 234 0.0 11.3 0.00 0.00 0.00 24 1008.2
20260501204643 20 193 0.0 11.3 0.00 0.00 0.00 23 1008.2
20260501204143 20 347 1.6 11.3 0.00 0.00 0.00 24 1008.2
20260501203642 20 296 0.0 11.3 0.00 0.00 0.00 24 1008.2
20260501203143 20 294 0.0 11.3 0.00 0.00 0.00 23 1008.2
20260501202643 20 15 0.0 11.3 0.00 0.00 0.00 23 1008.1